{"data":{"norad_id":60943,"intl_designator":"2024-155V","name":"STARLINK-32288","alt_names":[],"object_type":"PAYLOAD","status":"ACTIVE","operator":null,"country":"US","launch_date":"2024-08-31","launch_site_code":"AFWTR","launch_vehicle":null,"mission":null,"orbit_class":"UNKNOWN","rcs_meters":null,"size_class":null,"mass_kg":null,"dimensions":null,"purposes":["comms"],"wikipedia_slug":null,"has_3d_model":false,"image_url":null,"decayed_at":null,"tle_current":{"epoch":"2026-05-25T04:00:03.998880Z","epoch_age_seconds":54501,"freshness":"FRESH","line1":"1 60943U 24155V   26145.16671295 -.00010362  00000+0 -29605-3 0  9992","line2":"2 60943  53.1584 134.6089 0002048  70.6373  66.0703 15.34385666  5904","mean_motion":15.34385666,"eccentricity":0.0002048,"inclination_deg":53.1584,"raan_deg":134.6089,"arg_perigee_deg":70.6373,"mean_anomaly_deg":66.0703,"bstar":-0.00029605,"rev_number":590,"period_min":93.848634792969,"perigee_km":461.34483140103,"apogee_km":464.14685701402,"semimajor_km":6840.8828442075,"source":"CELESTRAK","updated_at":"2026-05-25T13:38:19.321623Z"}}}